Regional Weather Roundup
Issued by NWS Northern Indiana

Home | Current Version | Previous Version | Text Only | Print | Product List | Glossary On
Versions: 1 2 3 4 5 6 7 8 9 10 11 12 13 14 15 16 17 18 19 20 21 22 23 24 25 26 27 28 29 30 31 32 33 34 35 36 37 38 39 40 41 42 43 44 45 46 47 48 49 50
000
ASUS43 KIWX 270110
RWRIWX

KIWX WEATHER ROUNDUP
NATIONAL WEATHER SERVICE NORTHERN INDIANA
900 PM EDT TUE JUL 26 2016

NOTE: "FAIR" INDICATES FEW OR NO CLOUDS BELOW 12,000 FEET WITH NO
SIGNIFICANT WEATHER AND/OR OBSTRUCTIONS TO VISIBILITY.

* THESE STATIONS ARE NOT UNDER NWS QUALITY CONTROL. THEY ALSO MAY NOT
  REPORT WEATHER SUCH AS PRECIPITATION OR FOG.

INZ001>027-270200-
NORTHERN INDIANA

CITY           SKY/WX    TMP DP  RH WIND       PRES   REMARKS
GARY*          PTCLDY    79  68  69 NE5       30.03R
VALPARAISO     CLEAR     77  64  64 N3        30.03S
MICHIGAN CITY* PTCLDY    73  66  78 CALM      30.03R
LAPORTE*       CLEAR     77  67  71 NW7       30.03S
KNOX*          CLEAR     75  63  64 N3        30.01S
SOUTH BEND     PTCLDY    78  64  61 N5        30.02S
ELKHART*       CLEAR     81  70  69 N7        30.02S
GOSHEN         CLEAR     77  64  64 CALM      30.01S
MONTICELLO*    CLEAR     77  67  70 CALM      30.00F
LOGANSPORT*    CLEAR     75  64  69 CALM      30.02S
ROCHESTER*     CLEAR     79  70  73 CALM      30.02S
WARSAW*        CLEAR     77  63  61 CALM      30.01F
ANGOLA*        PTCLDY    81  73  78 CALM      30.02S
FORT WAYNE     PTCLDY    77  65  66 W5        30.01S
HUNTINGTON*    CLEAR     78  65  64 CALM      30.01R
PERU/GRISSOM   CLEAR     81  64  56 NW3       30.00S
MARION*        PTCLDY    76  68  74 CALM      30.02S HAZE

$$
INZ028>050-270200-
CENTRAL INDIANA

CITY           SKY/WX    TMP DP  RH WIND       PRES   REMARKS
LAFAYETTE      CLEAR     77  69  76 CALM      29.99F
KOKOMO*        CLEAR     77  64  65 CALM      30.01S
MUNCIE*        PTCLDY    78  67  68 CALM      30.02S
INDIANAPOLIS   PTCLDY    79  63  57 NE8       30.01F

$$
MIZ043>046-050>051-056>058-064>065-071>073-077>080-270200-
SOUTHWEST LOWER MICHIGAN

CITY           SKY/WX    TMP DP  RH WIND       PRES   REMARKS
BATTLE CREEK   CLEAR     77  65  66 NW7       30.03R
BENTON HARBOR  CLEAR     76  65  68 CALM      30.01S
COLDWATER*     CLEAR     76  68  75 CALM      30.02S
HOLLAND        CLEAR     75  65  70 W3        30.02S
GRAND RAPIDS   PTCLDY    79  59  50 W8        30.02R
KALAMAZOO      CLEAR     77  63  61 NW6       30.02S
STURGIS*       CLEAR     73  65  76 CALM      30.01S
THREE RIVERS*  FAIR      78  65  62 NW3       30.02S

$$
OHZ001>008-015>018-024>025-270200-
NORTHWEST OHIO

CITY           SKY/WX    TMP DP  RH WIND       PRES   REMARKS
DEFIANCE       PTCLDY    80  65  59 NE3       30.00S
FINDLAY        CLEAR     81  60  48 NE8       30.00S
TOLEDO EXPRESS CLEAR     80  64  58 VRB3      30.00S
TOLEDO METCALF CLEAR     80  60  50 SE7       30.01S
LIMA           PTCLDY    79  69  71 CALM      30.01S

$$
AND FOR LAKE MICHIGAN COASTAL AND OPEN LAKE BUOY OBSERVATIONS

STATION/POSITION TEMP    WIND        PRES    VSBY  WAVE
                 AIR SEA DIR/SP/G                  HT/PER
                 (F)     (DEG/KT/KT) (MB)    (MI)  (FT/S)
CALUMET HARBOR    77                   N/A
MICHIGAN CITY     77      30/  7/  8   N/A
BURNS HARBOR      79      60/  8/  9 1016.6S
SAINT JOSEPH      78      20/  3/  7 1016.9F
SOUTH LAKE BUOY   76 77  170/  2/  2 1015.6R         0
4 MI NW BRIDGMAN  77 77  360/  6/  8 1016.0S         0
MICHIGAN CITY     76 77   60/  2/  4   N/A           0

$$
&&




USA.gov is the U.S. government's official web portal to all federal, state and local government web resources and services.